Torna al catalogo

KUIPER-00152

AttivoComunicazioniLEO
NORAD 65772·PAYLOAD·🇺🇸 United States

Lanciato Sep 25, 2025 da Cape Canaveral Space Force Station

Loading…

Prossimi Passaggi (prossime 24 ore)

TLE

AggiornatoSource: CelesTrak SupGP

Epoca: Sep 14, 2026, 13:19 UTC

1 65772C 25217L   26257.55549769  .00006642  00000+0  86978-3 0  2571
2 65772  51.8991 275.4399 0000495  49.0805 192.6728 14.79909514    10

Traccia KUIPER-00152 in tempo reale con AllMySat

Download on the App Store